Location: Central Coast
(33.3208°S, 151.2336°E)
Time: 04:48:10
(UTC+11:00)

Vanguard 1 - All Passes

Search period start: 22 October 2017 00:00
Search period end: 01 November 2017 00:00
Orbit: 650 x 3834 km, 34.3° (Epoch: 20 October)

Date Brightness Start Highest point End Pass type
(mag) Time Alt. Az. Time Alt. Az. Time Alt. Az.
22 Oct - 08:59:45 10° N 09:11:59 22° NNE 09:20:40 10° ENE daylight
22 Oct - 11:21:05 10° NW 11:35:22 50° NNE 11:43:13 10° E daylight
22 Oct - 13:46:40 10° WNW 13:57:01 89° N 14:02:47 10° E daylight
22 Oct - 16:11:15 10° W 16:17:40 88° NNW 16:22:13 10° ENE daylight
22 Oct - 18:33:31 10° W 18:37:19 25° NNW 18:41:07 10° NNE daylight
23 Oct - 09:18:53 10° NNW 09:33:31 29° NNE 09:43:02 10° E daylight
23 Oct - 11:42:12 10° NW 11:56:39 61° NNE 12:04:21 10° E daylight
23 Oct - 14:08:21 10° W 14:18:11 85° S 14:23:46 10° E daylight
23 Oct - 16:32:37 10° W 16:38:42 73° NNW 16:43:10 10° ENE daylight
23 Oct - 18:55:25 10° WNW 18:58:10 16° NNW 19:00:57 10° N daylight
24 Oct - 07:23:06 10° NNE 07:30:26 13° NE 07:36:46 10° ENE daylight
24 Oct - 09:38:48 10° NNW 09:55:00 37° NNE 10:04:50 10° E daylight
24 Oct - 12:03:37 10° WNW 12:17:54 72° NNE 12:25:22 10° E daylight
24 Oct - 14:30:03 10° W 14:39:22 82° S 14:44:45 10° E daylight
24 Oct - 16:53:58 10° W 16:59:38 54° NNW 17:03:59 10° NE daylight
25 Oct - 07:39:27 10° N 07:52:06 19° NE 08:01:51 10° ENE daylight
25 Oct - 09:59:14 10° NW 10:16:25 47° NNE 10:26:17 10° E daylight
25 Oct - 12:25:15 10° WNW 12:39:08 82° NNE 12:46:22 10° E daylight
25 Oct - 14:51:42 10° W 15:00:31 85° S 15:05:44 10° E daylight
25 Oct - 17:15:24 10° W 17:20:30 37° NNW 17:24:37 10° NE daylight
26 Oct - 07:57:54 10° NNW 08:13:40 26° NE 08:24:52 10° E daylight
26 Oct - 10:20:07 10° NW 10:37:48 57° NNE 10:47:32 10° E daylight
26 Oct - 12:47:03 10° WNW 13:00:23 90° SSW 13:07:21 10° E daylight
26 Oct - 15:13:17 10° W 15:21:38 86° NNW 15:26:42 10° ENE daylight
26 Oct - 17:37:01 10° W 17:41:16 24° NNW 17:44:54 10° NNE daylight
27 Oct - 08:17:19 10° NNW 08:35:10 34° NNE 08:47:04 10° E daylight
27 Oct - 10:41:21 10° NW 10:59:10 67° NNE 11:08:40 10° E daylight
27 Oct - 13:08:55 10° W 13:21:38 85° S 13:28:20 10° E daylight
27 Oct - 15:34:49 10° W 15:42:42 72° NNW 15:47:35 10° ENE daylight
27 Oct - 17:59:11 10° WNW 18:01:58 15° NW 18:04:31 10° N daylight
28 Oct - 06:20:25 10° N 06:31:39 16° NE 06:41:17 10° ENE daylight
28 Oct - 08:37:22 10° NNW 08:56:38 43° NNE 09:08:47 10° E daylight
28 Oct - 11:02:54 10° WNW 11:20:30 77° NNE 11:29:42 10° E daylight
28 Oct - 13:30:48 10° W 13:42:54 84° S 13:49:19 10° E daylight
28 Oct - 15:56:20 10° W 16:03:37 55° NNW 16:08:21 10° NE daylight
29 Oct - 06:37:45 10° N 06:53:11 23° NE 07:05:31 10° E daylight
29 Oct - 08:57:54 10° NW 09:18:05 52° NNE 09:30:13 10° E daylight
29 Oct - 11:24:40 10° WNW 11:41:51 85° NNE 11:50:44 10° E daylight
29 Oct - 13:52:38 10° W 14:04:07 87° S 14:10:18 10° E daylight
29 Oct - 16:17:54 10° W 16:24:26 39° NNW 16:28:54 10° NE daylight
30 Oct - 06:56:30 10° NNW 07:14:38 30° NE 07:28:21 10° E daylight
30 Oct - 09:18:51 10° NW 09:39:31 62° NNE 09:51:29 10° ESE daylight
30 Oct - 11:46:37 10° W 12:03:14 89° S 12:11:45 10° E daylight
30 Oct - 14:14:24 10° W 14:25:18 85° NNW 14:31:15 10° ENE daylight
30 Oct - 16:39:41 10° W 16:45:06 26° NW 16:49:07 10° NNE daylight
31 Oct - 05:04:34 10° NNE 05:10:56 12° NE 05:17:00 10° ENE visible
31 Oct - 07:16:04 10° NNW 07:36:05 39° NE 07:50:28 10° E daylight
31 Oct - 09:40:10 10° WNW 10:00:58 71° NNE 10:12:39 10° ESE daylight
31 Oct - 12:08:38 10° W 12:24:35 86° S 12:32:47 10° E daylight
31 Oct - 14:36:07 10° WSW 14:46:24 72° NNW 14:52:07 10° ENE daylight
31 Oct - 17:01:56 10° W 17:05:39 16° NW 17:08:43 10° N daylight
